FW5487 Weather Reports


Display with metric or nautical units.
time (UTC)temp
F
wind
direction
speed
MPH
gust
MPH
rain 1hr
in
rain 24hr
in
rain mn
in
humidity
%
barometer
mb
20260507151703 59 226 9.0 14.0 0.00 0.00 0.00 47 1000.0
20260507151203 60 214 6.0 13.0 0.00 0.00 0.00 47 1000.0
20260507150703 59 242 7.0 15.0 0.00 0.00 0.00 48 1000.0
20260507150203 59 226 9.0 15.0 0.00 0.00 0.00 46 1000.0
20260507145204 59 224 7.0 14.0 0.00 0.00 0.00 50 1000.0
20260507144204 57 221 10.0 15.0 0.00 0.00 0.00 48 1000.0
20260507143703 57 219 9.0 15.0 0.00 0.00 0.00 52 1000.0
20260507143203 57 225 9.0 13.0 0.00 0.00 0.00 52 1000.0
20260507142703 57 219 6.0 12.0 0.00 0.00 0.00 55 1000.0
20260507142203 57 217 5.0 10.0 0.00 0.00 0.00 58 1000.0
20260507141704 56 216 7.0 10.0 0.00 0.00 0.00 58 1000.0
20260507141204 56 219 6.0 9.0 0.00 0.00 0.00 60 1000.0
20260507140704 55 228 6.0 9.0 0.00 0.00 0.00 60 1000.0
20260507140203 55 224 7.0 12.0 0.00 0.00 0.00 60 1000.0
20260507135703 55 230 6.0 8.0 0.00 0.00 0.00 60 1000.0
20260507135204 54 215 5.0 9.0 0.00 0.00 0.00 64 1000.0
20260507134704 54 207 5.0 8.0 0.00 0.00 0.00 64 1000.0
20260507134203 53 217 6.0 9.0 0.00 0.00 0.00 65 1000.0
20260507133704 53 217 6.0 8.0 0.00 0.00 0.00 64 1000.0
20260507133204 53 212 5.0 8.0 0.00 0.00 0.00 66 1000.0
20260507132704 52 225 6.0 9.0 0.00 0.00 0.00 65 1000.0
20260507132203 52 218 6.0 9.0 0.00 0.00 0.00 65 1000.0
20260507131704 51 202 6.0 8.0 0.00 0.00 0.00 66 1000.0
20260507131203 51 210 5.0 8.0 0.00 0.00 0.00 69 1000.0
20260507130704 50 224 7.0 9.0 0.00 0.00 0.00 66 1000.0
20260507130203 51 212 6.0 7.0 0.00 0.00 0.00 69 1000.0
20260507125704 50 219 6.0 9.0 0.00 0.00 0.00 68 1000.0
20260507125203 50 220 5.0 7.0 0.00 0.00 0.00 70 1000.0
20260507124704 49 220 4.0 6.0 0.00 0.00 0.00 73 1000.0
20260507124203 49 227 5.0 6.0 0.00 0.00 0.00 74 1000.0
20260507123704 48 228 4.0 7.0 0.00 0.00 0.00 74 1000.0
20260507123204 48 251 4.0 7.0 0.00 0.00 0.00 74 1000.0
20260507122705 47 219 6.0 8.0 0.00 0.00 0.00 72 1000.0
20260507122204 47 212 3.0 5.0 0.00 0.00 0.00 77 1000.0
20260507121703 47 207 5.0 7.0 0.00 0.00 0.00 76 1000.0
20260507121204 47 227 5.0 7.0 0.00 0.00 0.00 76 1000.0
20260507120704 46 217 5.0 7.0 0.00 0.00 0.00 78 1000.0
20260507120204 46 221 4.0 7.0 0.00 0.00 0.00 79 1000.0
20260507115703 46 216 3.0 5.0 0.00 0.00 0.00 82 1000.0
20260507115203 45 217 2.0 5.0 0.00 0.00 0.00 84 1000.0
20260507114704 45 205 3.0 5.0 0.00 0.00 0.00 84 1000.0
20260507114203 45 204 4.0 6.0 0.00 0.00 0.00 83 1000.0
20260507113703 45 217 3.0 6.0 0.00 0.00 0.00 84 1000.0
20260507113204 45 210 3.0 5.0 0.00 0.00 0.00 85 1000.0
20260507112704 45 209 2.0 5.0 0.00 0.00 0.00 87 1000.0
20260507112204 44 209 2.0 3.0 0.00 0.00 0.00 88 1000.0
20260507111703 44 205 1.0 2.0 0.00 0.00 0.00 89 1000.0
20260507111203 44 180 2.0 3.0 0.00 0.00 0.00 90 1000.0
20260507110704 44 181 1.0 2.0 0.00 0.00 0.00 91 1000.0
20260507110204 44 183 2.0 3.0 0.00 0.00 0.00 91 1000.0
20260507105703 44 171 3.0 5.0 0.00 0.00 0.00 91 1000.0
20260507104203 45 170 1.0 2.0 0.00 0.00 0.00 91 1000.0
20260507103704 45 166 2.0 2.0 0.00 0.00 0.00 91 1000.0
20260507103204 46 168 2.0 2.0 0.00 0.00 0.00 90 1000.0
20260507102704 46 195 2.0 3.0 0.00 0.00 0.00 90 1000.0
20260507102204 46 217 1.0 1.0 0.00 0.00 0.00 90 1000.0
20260507101204 46 228 3.0 3.0 0.00 0.00 0.00 91 1000.0
20260507100704 47 221 2.0 3.0 0.00 0.00 0.00 91 1000.0
20260507095704 47 235 2.0 3.0 0.00 0.00 0.00 91 1000.0
20260507095204 47 230 3.0 5.0 0.00 0.00 0.00 91 1000.0
20260507094703 47 245 3.0 5.0 0.00 0.00 0.00 90 1000.0
20260507094204 47 230 3.0 5.0 0.00 0.00 0.00 91 1000.0
20260507093205 47 238 3.0 5.0 0.00 0.00 0.00 91 1000.0
20260507092704 47 236 2.0 3.0 0.00 0.00 0.00 92 1000.0
20260507092204 47 237 2.0 5.0 0.00 0.00 0.00 92 1000.0
20260507090704 47 236 2.0 3.0 0.00 0.00 0.00 94 1000.0
20260507090203 47 230 2.0 3.0 0.00 0.00 0.00 94 1000.0
20260507085704 47 228 2.0 2.0 0.00 0.00 0.00 95 1000.0
20260507085203 47 219 1.0 2.0 0.00 0.00 0.00 95 1000.0
20260507084703 46 197 1.0 2.0 0.00 0.00 0.00 95 1000.0
20260507084204 46 197 1.0 2.0 0.00 0.00 0.00 95 1000.0
20260507083703 46 166 2.0 3.0 0.00 0.00 0.00 95 1000.0
20260507083203 47 162 3.0 3.0 0.00 0.00 0.00 94 1000.0
20260507082704 47 206 1.0 2.0 0.00 0.00 0.00 95 1000.0
20260507082203 47 195 0.0 0.0 0.00 0.00 0.00 95 1000.0
20260507081204 47 176 1.0 2.0 0.00 0.01 0.00 95 1000.0
20260507080704 47 210 2.0 3.0 0.00 0.01 0.00 95 1000.0
20260507080204 47 227 3.0 3.0 0.00 0.01 0.00 95 1000.0
20260507075703 47 225 2.0 2.0 0.00 0.01 0.00 95 1000.0
20260507075203 47 204 2.0 2.0 0.00 0.01 0.00 94 1000.0
20260507074704 47 181 2.0 3.0 0.00 0.01 0.00 94 1000.0
20260507074204 47 168 3.0 3.0 0.00 0.01 0.00 93 1000.0
20260507073703 48 171 2.0 2.0 0.00 0.01 0.00 93 1000.0
20260507073203 48 238 2.0 2.0 0.00 0.01 0.00 93 1000.0
20260507072704 48 223 2.0 2.0 0.00 0.01 0.00 93 1000.0
20260507072204 48 223 2.0 3.0 0.00 0.02 0.00 93 1000.0
20260507071703 48 229 2.0 3.0 0.00 0.02 0.00 93 1000.0
20260507071203 48 234 2.0 5.0 0.00 0.02 0.00 92 1000.0
20260507070704 49 259 3.0 6.0 0.00 0.03 0.00 92 1000.0
20260507065704 49 266 3.0 3.0 0.00 0.03 0.00 92 1000.0
20260507065203 49 263 2.0 3.0 0.00 0.04 0.00 91 1000.0
20260507064703 49 257 2.0 3.0 0.00 0.04 0.00 90 1000.0
20260507064204 49 235 2.0 3.0 0.00 0.05 0.00 90 1000.0
20260507063703 49 267 2.0 3.0 0.00 0.05 0.00 89 1000.0
20260507063203 50 284 2.0 3.0 0.00 0.05 0.00 89 1000.0
20260507062204 50 230 0.0 1.0 0.00 0.05 0.00 87 1000.0
20260507061704 50 254 2.0 2.0 0.00 0.06 0.00 87 1000.0
20260507060704 50 266 2.0 2.0 0.00 0.06 0.00 86 1000.0
20260507060203 50 262 1.0 2.0 0.00 0.08 0.00 85 1000.0
20260507055703 50 178 1.0 1.0 0.00 0.09 0.00 84 1000.0
20260507055204 51 184 1.0 1.0 0.00 0.10 0.00 82 1000.0
20260507054204 51 254 0.0 0.0 0.00 0.11 0.00 82 1000.0
20260507053703 51 254 0.0 2.0 0.00 0.11 0.00 83 1000.0
20260507053204 50 282 2.0 2.0 0.00 0.11 0.00 84 1000.0
20260507052204 50 283 2.0 3.0 0.00 0.11 0.00 86 1000.0
20260507051204 51 284 2.0 3.0 0.00 0.11 0.00 85 1000.0
20260507050703 52 282 2.0 3.0 0.00 0.11 0.00 83 1000.0
20260507050203 52 288 2.0 3.0 0.00 0.11 0.00 80 1000.0
20260507045703 52 280 2.0 2.0 0.00 0.11 0.11 78 1000.0
20260507045204 53 277 1.0 2.0 0.00 0.11 0.11 76 1000.0
20260507044704 53 271 0.0 2.0 0.00 0.12 0.11 75 1000.0
20260507044203 53 271 0.0 0.0 0.00 0.12 0.11 75 1000.0
20260507043703 53 271 0.0 2.0 0.00 0.12 0.11 74 1000.0
20260507043204 53 266 1.0 2.0 0.00 0.12 0.11 74 1000.0
20260507042704 53 276 1.0 2.0 0.00 0.12 0.11 73 1000.0
20260507042204 53 259 1.0 2.0 0.00 0.13 0.11 72 1000.0
20260507041703 53 285 0.0 2.0 0.00 0.14 0.11 71 1000.0
20260507041203 53 282 1.0 2.0 0.00 0.15 0.11 70 1000.0
20260507040704 53 282 0.0 1.0 0.00 0.16 0.11 69 1000.0
20260507040204 53 282 0.0 2.0 0.00 0.17 0.11 68 1000.0
20260507035703 53 280 0.0 0.0 0.00 0.18 0.11 68 1000.0
20260507035203 53 280 0.0 0.0 0.00 0.19 0.11 67 1000.0
20260507034706 54 280 0.0 0.0 0.00 0.19 0.11 66 1000.0
20260507033703 54 280 0.0 0.0 0.00 0.20 0.11 66 1000.0
20260507033204 54 280 0.0 0.0 0.00 0.21 0.11 66 1000.0
20260507032704 54 280 0.0 0.0 0.00 0.21 0.11 66 1000.0
20260507032203 54 280 0.0 2.0 0.00 0.21 0.11 66 1000.0
20260507031703 54 277 0.0 0.0 0.00 0.22 0.11 66 1000.0
20260507031204 54 277 1.0 3.0 0.00 0.22 0.11 66 1000.0
20260507030704 54 324 1.0 2.0 0.00 0.22 0.11 64 1000.0
20260507030204 54 292 0.0 1.0 0.00 0.22 0.11 61 1000.0
20260507025703 55 356 0.0 2.0 0.00 0.23 0.11 60 1000.0
20260507025203 55 352 2.0 3.0 0.00 0.23 0.11 60 1000.0
20260507024704 54 346 2.0 5.0 0.00 0.24 0.11 59 1000.0
20260507023204 55 325 2.0 3.0 0.00 0.24 0.11 60 1000.0
20260507022204 55 323 2.0 3.0 0.00 0.24 0.11 58 1000.0
20260507021204 55 328 1.0 2.0 0.00 0.24 0.11 58 1000.0
20260507020704 56 331 2.0 3.0 0.00 0.24 0.11 57 1000.0
20260507020204 56 350 1.0 3.0 0.00 0.24 0.11 56 1000.0
20260507015703 56 325 2.0 3.0 0.00 0.24 0.11 55 1000.0
20260507015203 57 333 2.0 3.0 0.00 0.24 0.11 52 1000.0
20260507014704 57 355 3.0 5.0 0.00 0.24 0.11 51 1000.0
20260507014204 57 342 2.0 8.0 0.00 0.24 0.11 50 1000.0
20260507013703 57 345 3.0 6.0 0.00 0.24 0.11 50 1000.0
20260507013203 57 3 4.0 8.0 0.00 0.24 0.11 50 1000.0
20260507012704 58 17 2.0 7.0 0.00 0.24 0.11 50 1000.0
20260507011703 58 9 1.0 5.0 0.00 0.24 0.11 50 1000.0
20260507011203 58 352 2.0 5.0 0.00 0.24 0.11 49 1000.0
20260507010704 58 357 2.0 5.0 0.00 0.24 0.11 48 1000.0
20260507010204 59 12 2.0 6.0 0.00 0.24 0.11 48 1000.0
20260507005703 59 343 3.0 8.0 0.00 0.24 0.11 47 1000.0
20260507005205 59 11 2.0 5.0 0.00 0.24 0.11 47 1000.0
20260507004704 59 22 3.0 8.0 0.00 0.24 0.11 47 1000.0
20260507003704 59 357 5.0 10.0 0.00 0.24 0.11 45 1000.0
20260507003203 60 4 5.0 9.0 0.00 0.24 0.11 45 1000.0
20260507002704 60 31 2.0 6.0 0.00 0.24 0.11 45 1000.0
20260507002204 60 14 3.0 8.0 0.00 0.24 0.11 44 1000.0
20260507001704 61 5 4.0 9.0 0.00 0.24 0.11 44 1000.0
20260507001203 61 13 2.0 7.0 0.00 0.24 0.11 44 1000.0
20260507000703 61 348 5.0 7.0 0.00 0.24 0.11 43 1000.0
20260506235704 61 348 5.0 7.0 0.00 0.24 0.11 44 1000.0
20260506235203 61 8 4.0 9.0 0.00 0.24 0.11 43 1000.0
20260506234703 61 30 5.0 10.0 0.00 0.24 0.11 42 1000.0
20260506234204 62 8 3.0 7.0 0.00 0.24 0.11 44 1000.0
20260506233704 61 8 5.0 9.0 0.00 0.24 0.11 42 1000.0
20260506232704 62 4 5.0 12.0 0.00 0.24 0.11 43 1000.0
20260506231703 62 15 5.0 10.0 0.00 0.25 0.11 42 1000.0
20260506231204 62 357 4.0 7.0 0.00 0.25 0.11 43 1000.0
20260506230703 62 14 5.0 10.0 0.00 0.25 0.11 40 1000.0
20260506230203 62 14 5.0 10.0 0.00 0.25 0.11 41 1000.0
20260506225204 62 11 5.0 10.0 0.00 0.27 0.11 42 1000.0
20260506224703 62 29 5.0 18.0 0.00 0.28 0.11 41 1000.0
20260506224204 62 16 7.0 17.0 0.00 0.28 0.11 41 1000.0
20260506223703 63 17 5.0 9.0 0.00 0.28 0.11 41 1000.0
20260506223203 63 350 4.0 7.0 0.00 0.28 0.11 39 1000.0
20260506222703 64 346 5.0 9.0 0.00 0.28 0.11 40 1000.0
20260506222203 63 7 6.0 10.0 0.00 0.28 0.11 41 1000.0
20260506221704 63 335 6.0 9.0 0.00 0.28 0.11 42 1000.0
20260506221204 63 0 6.0 10.0 0.00 0.29 0.11 42 1000.0
20260506220703 63 11 4.0 12.0 0.00 0.29 0.11 43 1000.0
20260506220203 63 325 7.0 14.0 0.00 0.29 0.11 43 1000.0
20260506215704 63 346 7.0 13.0 0.00 0.29 0.11 41 1000.0
20260506215204 63 347 5.0 9.0 0.00 0.30 0.11 42 1000.0
20260506214704 63 352 6.0 14.0 0.00 0.30 0.11 41 1000.0
20260506213703 64 346 6.0 15.0 0.00 0.31 0.11 44 1000.0
20260506213203 64 330 6.0 14.0 0.00 0.31 0.11 42 1000.0
20260506212704 64 329 5.0 9.0 0.00 0.31 0.11 40 1000.0
20260506212204 63 341 5.0 9.0 0.00 0.31 0.11 42 1000.0
20260506211704 64 1 4.0 9.0 0.00 0.31 0.11 43 1000.0
20260506211203 63 335 6.0 10.0 0.00 0.31 0.11 44 1000.0
20260506210704 63 314 4.0 7.0 0.00 0.31 0.11 43 1000.0
20260506210203 63 11 3.0 7.0 0.00 0.31 0.11 43 1000.0
20260506205204 64 26 2.0 8.0 0.00 0.31 0.11 44 1000.0
20260506204204 64 330 4.0 10.0 0.00 0.31 0.11 42 1000.0
20260506202704 63 348 6.0 12.0 0.00 0.31 0.11 44 1000.0
20260506202204 63 318 6.0 14.0 0.00 0.31 0.11 44 1000.0
20260506201704 63 335 5.0 8.0 0.00 0.31 0.11 45 1000.0
20260506201203 63 303 5.0 9.0 0.00 0.31 0.11 44 1000.0
20260506200703 63 0 7.0 14.0 0.00 0.31 0.11 43 1000.0
20260506200204 63 339 1.0 6.0 0.00 0.31 0.11 43 1000.0
20260506195704 63 359 6.0 8.0 0.00 0.31 0.11 42 1000.0
20260506195204 63 316 6.0 10.0 0.00 0.31 0.11 41 1000.0
20260506194703 63 336 5.0 14.0 0.00 0.31 0.11 41 1000.0
20260506194203 63 342 7.0 14.0 0.00 0.31 0.11 41 1000.0
20260506193704 63 358 3.0 8.0 0.00 0.31 0.11 40 1000.0
20260506193204 62 325 9.0 16.0 0.00 0.31 0.11 40 1000.0
20260506192704 63 332 7.0 15.0 0.00 0.31 0.11 41 1000.0
20260506192204 63 329 6.0 10.0 0.00 0.31 0.11 42 1000.0
20260506191703 62 314 6.0 12.0 0.00 0.31 0.11 43 1000.0
20260506191204 62 316 7.0 13.0 0.00 0.31 0.11 41 1000.0
20260506190203 62 347 6.0 9.0 0.00 0.31 0.11 42 1000.0
20260506185704 62 353 4.0 9.0 0.00 0.31 0.11 41 1000.0
20260506185203 62 358 6.0 12.0 0.00 0.31 0.11 41 1000.0
20260506184706 62 315 7.0 16.0 0.00 0.31 0.11 41 1000.0
20260506182704 62 341 6.0 12.0 0.00 0.31 0.11 44 1000.0
20260506181703 61 347 6.0 12.0 0.00 0.31 0.11 50 1000.0
20260506181204 60 330 4.0 15.0 0.00 0.31 0.11 48 1000.0
20260506180203 61 298 4.0 9.0 0.00 0.31 0.11 52 1000.0
20260506175704 61 306 6.0 12.0 0.00 0.31 0.11 50 1000.0
20260506175203 60 38 5.0 10.0 0.00 0.31 0.11 50 1000.0
20260506174703 60 307 7.0 13.0 0.00 0.31 0.11 52 1000.0
20260506174204 60 319 6.0 14.0 0.00 0.31 0.11 51 1000.0
20260506173704 60 329 2.0 7.0 0.00 0.31 0.11 53 1000.0
20260506173203 60 301 5.0 13.0 0.00 0.31 0.11 50 1000.0
20260506172704 59 313 6.0 10.0 0.00 0.31 0.11 54 1000.0
20260506172203 59 314 5.0 9.0 0.00 0.31 0.11 51 1000.0
20260506171703 59 317 6.0 12.0 0.00 0.31 0.11 52 1000.0
20260506171204 59 13 5.0 9.0 0.00 0.31 0.11 53 1000.0
20260506170704 58 310 5.0 9.0 0.00 0.31 0.11 51 1000.0
20260506170203 58 328 7.0 13.0 0.00 0.31 0.11 51 1000.0
20260506165703 59 327 3.0 9.0 0.00 0.31 0.11 53 1000.0
20260506165204 58 348 7.0 14.0 0.00 0.31 0.11 56 1000.0
20260506164704 58 337 6.0 9.0 0.00 0.31 0.11 52 1000.0
20260506164203 58 340 3.0 9.0 0.00 0.31 0.11 54 1000.0
20260506163704 58 20 3.0 7.0 0.00 0.31 0.11 54 1000.0
20260506163203 57 315 5.0 9.0 0.00 0.31 0.11 55 1000.0
20260506162204 58 304 3.0 10.0 0.00 0.31 0.11 55 1000.0
20260506161703 57 340 6.0 10.0 0.00 0.31 0.11 54 1000.0
20260506161204 57 322 5.0 8.0 0.00 0.31 0.11 54 1000.0
20260506160704 57 17 5.0 10.0 0.00 0.31 0.11 55 1000.0
20260506160204 57 342 5.0 10.0 0.00 0.31 0.11 55 1000.0
20260506155703 57 309 5.0 10.0 0.00 0.31 0.11 54 1000.0
20260506155204 57 14 3.0 6.0 0.00 0.31 0.11 55 1000.0
20260506154204 57 352 4.0 9.0 0.00 0.31 0.11 54 1000.0
20260506153703 57 337 3.0 9.0 0.00 0.31 0.11 55 1000.0
20260506153204 57 348 2.0 7.0 0.00 0.31 0.11 55 1000.0
20260506152704 57 28 4.0 7.0 0.00 0.31 0.11 55 1000.0
20260506152203 57 345 2.0 8.0 0.00 0.31 0.11 54 1000.0